Weather History for KCOU - February, 2012

Change the Weather History Date:

Saturday, February 4, 2012

  Actual Average Record
Temperature  
Mean Temperature 44 °F 32 °F  
Max Temperature 48 °F 41 °F 77 °F (1962)
Min Temperature 39 °F 22 °F -16 °F (1895)
Degree Days  
Heating Degree Days 21 34  
Month to date heating degree days 76 136  
Since 1 July heating degree days 2697 3225  
Cooling Degree Days 0 0  
Month to date cooling degree days 0 0  
Year to date cooling degree days 0 0  
Moisture  
Dew Point 44 °F    
Average Humidity 96    
Maximum Humidity 100    
Minimum Humidity 92    
Precipitation  
Precipitation 0.22 in 0.07 in 1.05 in (1971)
Month to date precipitation 1.30 0.27  
Year to date precipitation 2.04 2.19  
Snow  
Snow 0.00 in 0.20 in 5.50 in (1897)
Month to date snowfall 0.0 0.8  
Since 1 July snowfall 2.9 12.2  
Snow Depth 0.00 in    
Sea Level Pressure  
Sea Level Pressure 30.06 in    
Wind  
Wind Speed 9 mph (NE)    
Max Wind Speed 16 mph    
Max Gust Speed 20 mph    
Visibility 4 miles    
Events Rain    
T = Trace of Precipitation, MM = Missing Value Source: NWS Daily Summary

Daily Weather History Graph

Daily Weather History Graph

Search for Another Location

Airport or City:

Trip Planner

Search our weather history database for the weather conditions in past years. The results will help you decide how hot, cold, wet, or windy it might be!

Date:

Astronomy

Feb. 04, 2012 Rise Set
Actual Time 7:12 AM CST 5:33 PM CST
Civil Twilight 6:44 AM CST 6:01 PM CST
Nautical Twilight 6:12 AM CST 6:33 PM CST
Astronomical Twilight 5:41 AM CST 7:04 PM CST
Moon 2:32 PM CST (2/4) 4:37 AM CST (2/4)
Length of Visible Light 11h 16m
Length of Day
10h 20m
Waxing Gibbous, 89% of the Moon is Illuminated
Feb 4
Waxing Gibbous
Feb 7
Full
Feb 14
Last Quarter
Feb 21
New
Feb 29
First Quarter

Hourly Weather History & Observations

Time (CST) Temp. Windchill Dew Point Humidity Pressure Visibility Wind Dir Wind Speed Gust Speed Precip Events Conditions
12:54 AM 45.0 °F 38.9 °F 44.1 °F 97% 30.01 in 10.0 mi East 12.7 mph - N/A   Overcast
1:54 AM 45.0 °F 39.3 °F 43.0 °F 93% 29.99 in 10.0 mi East 11.5 mph - N/A   Overcast
2:54 AM 45.0 °F 39.7 °F 43.0 °F 93% 29.99 in 10.0 mi East 10.4 mph - 0.00 in Rain Light Rain
3:52 AM 44.6 °F 38.4 °F 42.8 °F 93% 29.98 in 5.0 mi East 12.7 mph - 0.01 in Rain Light Rain
3:54 AM 44.1 °F 38.1 °F 43.0 °F 96% 29.99 in 6.0 mi East 11.5 mph - 0.01 in Rain Light Rain
4:54 AM 44.1 °F 38.6 °F 44.1 °F 100% 30.00 in 9.0 mi East 10.4 mph - 0.01 in   Overcast
5:54 AM 44.1 °F 39.0 °F 44.1 °F 100% 30.00 in 2.5 mi East 9.2 mph - 0.01 in Rain Light Rain
6:38 AM 44.6 °F 38.8 °F - N/A% 29.98 in 1.8 mi East 11.5 mph - 0.00 in   Overcast
6:46 AM 44.6 °F 39.7 °F - N/A% 29.97 in 2.0 mi East 9.2 mph - 0.01 in   Overcast
6:54 AM 44.1 °F 38.6 °F - N/A% 29.99 in 1.8 mi East 10.4 mph - 0.01 in   Overcast
7:54 AM 44.1 °F 39.0 °F - N/A% 30.00 in 1.0 mi East 9.2 mph - N/A   Overcast
8:54 AM 45.0 °F 41.2 °F - N/A% 30.03 in 1.5 mi East 6.9 mph - 0.01 in   Overcast
9:54 AM 45.0 °F 43.5 °F - N/A% 30.04 in 1.2 mi ESE 3.5 mph - 0.01 in   Overcast
10:23 AM 46.4 °F 44.3 °F - N/A% 30.03 in 2.0 mi ESE 4.6 mph - 0.01 in   Overcast
10:54 AM 46.0 °F 44.8 °F - N/A% 30.05 in 2.0 mi ESE 3.5 mph - 0.01 in   Overcast
11:54 AM 46.9 °F - 46.9 °F 100% 30.04 in 2.0 mi SW 3.5 mph - N/A   Overcast
12:12 PM 48.2 °F - 48.2 °F 100% 30.03 in 3.0 mi West 6.9 mph - N/A   Overcast
12:54 PM 46.9 °F - 46.9 °F 100% 30.03 in 2.5 mi West 10.4 mph - 0.01 in Rain Light Rain
1:54 PM 48.0 °F - 48.0 °F 100% 30.03 in 9.0 mi West 9.2 mph - 0.00 in   Overcast
2:33 PM 46.4 °F 41.9 °F 46.4 °F 100% 30.03 in 3.0 mi West 9.2 mph - 0.00 in Rain Light Rain
2:42 PM 46.4 °F 41.5 °F 46.4 °F 100% 30.03 in 2.5 mi West 10.4 mph - 0.00 in Rain Light Rain
2:54 PM 46.9 °F - 46.9 °F 100% 30.04 in 2.5 mi West 9.2 mph - 0.00 in   Overcast
3:01 PM 46.4 °F 41.5 °F 46.4 °F 100% 30.04 in 3.0 mi West 10.4 mph - N/A   Overcast
3:54 PM 46.9 °F - 46.9 °F 100% 30.05 in 3.0 mi West 8.1 mph - 0.00 in Rain Light Rain
4:39 PM 46.4 °F - 46.4 °F 100% 30.05 in 2.0 mi Calm Calm - 0.02 in Rain Light Rain
4:54 PM 46.0 °F - 46.0 °F 100% 30.07 in 2.0 mi Calm Calm - 0.03 in Rain Light Rain
5:38 PM 44.6 °F 39.2 °F 44.6 °F 100% 30.07 in 2.0 mi North 10.4 mph - 0.05 in Rain Rain
5:54 PM 43.0 °F 36.8 °F 43.0 °F 100% 30.09 in 3.0 mi NNE 11.5 mph - 0.07 in Rain Light Rain
6:12 PM 42.8 °F 37.5 °F 42.8 °F 100% 30.09 in 2.5 mi NNE 9.2 mph - 0.01 in Rain Light Rain
6:54 PM 41.0 °F 34.3 °F 41.0 °F 100% 30.13 in 2.5 mi North 11.5 mph - 0.02 in Rain Light Rain
7:05 PM 41.0 °F 35.8 °F 41.0 °F 100% 30.12 in 4.0 mi NNE 8.1 mph - 0.01 in Rain Light Rain
7:52 PM 41.0 °F 34.7 °F 41.0 °F 100% 30.13 in 8.0 mi NNE 10.4 mph - 0.01 in Rain Light Rain
7:54 PM 41.0 °F 34.7 °F 41.0 °F 100% 30.14 in 10.0 mi NNE 10.4 mph - 0.01 in Rain Light Rain
8:54 PM 41.0 °F 35.8 °F 41.0 °F 100% 30.15 in 10.0 mi NNE 8.1 mph - 0.00 in   Overcast
9:54 PM 41.0 °F 35.2 °F 41.0 °F 100% 30.16 in 6.0 mi North 9.2 mph - N/A   Overcast
10:22 PM 39.2 °F 33.6 °F 39.2 °F 100% 30.14 in 2.5 mi NE 8.1 mph - N/A   Overcast
10:34 PM 39.2 °F 35.9 °F 39.2 °F 100% 30.15 in 3.0 mi NNE 4.6 mph - N/A   Overcast
10:54 PM 39.9 °F 33.9 °F 39.9 °F 100% 30.16 in 2.5 mi North 9.2 mph - 0.01 in Rain Light Rain
11:02 PM 39.2 °F 33.6 °F 39.2 °F 100% 30.15 in 3.0 mi North 8.1 mph - 0.00 in Rain Light Rain
11:54 PM 39.0 °F 32.3 °F 39.0 °F 100% 30.17 in 2.5 mi North 10.4 mph - 0.00 in Rain Light Rain